• Join FlightAware (Why Join?)
  • Login
  • US Flag 
07:32AM EDT


 

Airport Tracker/Info


-or-


 

Live Flight TrackerFlight Track Log ✈ FSR411 ✈ 09-Dec-2013 ✈ KTEB - KMDW

Flight Track Log - Related Links

Times and Time Zones

All times are in EST time to prevent confusion due to time zone crossing. See the FSR411 flight status page for this flight to view local times or setup timezone preferences in your user account.

Time Position Orientation Groundspeed Altitude Reporting Facility
EST Latitude Longitude Course Direction KTS MPH feet Rate Location/Type
09:40PM 40.8333 -74.1167 259° West 169 194 1,500  Level New York TRACON
09:41PM 40.8167 -74.1667 246° West 174 200 2,200 1,680 Climbing New York TRACON
09:42PM 40.8167 -74.2333 270° West 188 216 4,900 2,700 Climbing New York TRACON
09:43PM 40.8333 -74.3167 285° West 230 265 7,700 2,520 Climbing New York TRACON
09:44PM 40.8333 -74.4167 270° West 265 305 10,000 780 Climbing New York TRACON
09:45PM 40.9174 -74.5906 259° West  Level Estimated
09:46PM 40.8619 -74.6042 281° West 308 354 10,000  Level New York Center
09:47PM 40.8731 -74.7089 278° West 302 348 10,100 1,080 Climbing New York Center
09:48PM 40.9372 -74.7814 320° Northwest 282 325 12,200 2,820 Climbing New York Center
09:49PM 40.9861 -74.8722 306° West 305 351 15,800 2,400 Climbing New York Center
09:50PM 40.9697 -74.9839 259° West 287 330 17,000 660 Climbing New York Center
09:51PM 40.9389 -75.0864 248° West 282 325 17,200 1,200 Climbing New York Center
09:52PM 40.9125 -75.1808 250° West 297 342 19,400 2,460 Climbing New York Center
09:53PM 40.8894 -75.2947 255° West 304 350 22,200 2,760 Climbing New York Center
09:54PM 40.8667 -75.4028 254° West 310 357 25,000 2,760 Climbing New York Center
09:55PM 40.8392 -75.5133 252° West 316 364 27,700 2,640 Climbing New York Center
09:56PM 40.8142 -75.6186 253° West 316 364 30,300 2,280 Climbing New York Center
09:57PM 40.7889 -75.7264 253° West 316 364 32,400 1,860 Climbing New York Center
09:58PM 40.7636 -75.8289 252° West 311 358 34,000 1,500 Climbing New York Center
09:59PM 40.7383 -75.9311 252° West 306 352 35,500 1,440 Climbing New York Center
10:00PM 40.7378 -76.0406 270° West 301 346 36,900 1,200 Climbing New York Center
10:01PM 40.7536 -76.1514 281° West 295 339 38,000 540 Climbing New York Center
10:02PM 40.7672 -76.2619 279° West 300 345 38,000  Level New York Center
10:03PM 40.7789 -76.3700 278° West 300 345 38,000 240 Level New York Center
10:04PM 40.7944 -76.4808 281° West 300 345 38,500 900 Climbing New York Center
10:05PM 40.8061 -76.5833 279° West 295 339 39,800 1,260 Climbing New York Center
10:06PM 40.8178 -76.6831 279° West 290 334 41,100 1,020 Climbing New York Center
10:07PM 40.8278 -76.7744 278° West 277 319 41,900 660 Climbing New York Center
10:08PM 40.8397 -76.8686 280° West 267 307 42,500 480 Climbing New York Center
10:09PM 40.8492 -76.9656 277° West 267 307 42,900 240 Climbing New York Center
10:10PM 40.8628 -77.0628 281° West 267 307 43,000  Climbing New York Center
10:11PM 40.8742 -77.1628 279° West 274 315 43,000  Level New York Center
10:12PM 40.8956 -77.3464 279° West 288 331 43,000  Level Cleveland Center
10:13PM 40.9108 -77.4733 279° West 292 336 43,000  Level Cleveland Center
10:15PM 40.9246 -77.6045 278° West  Level FlightAware Approximate
10:17PM 40.9522 -77.8725 278° West 288 331 43,000  Level Cleveland Center
10:18PM 40.9644 -77.9789 279° West 294 338 43,000  Level Cleveland Center
10:19PM 40.9756 -78.0850 278° West 294 338 43,000  Level Cleveland Center
10:20PM 40.9867 -78.1925 278° West 297 342 43,000  Level Cleveland Center
10:21PM 40.9989 -78.3167 277° West 299 344 43,000  Level Cleveland Center
10:22PM 41.0105 -78.4532 278° West  Level FlightAware Approximate
10:22PM 41.0119 -78.4264 279° West 302 348 43,000  Level Cleveland Center
10:23PM 41.0250 -78.5389 279° West 308 354 43,000  Level Cleveland Center
10:24PM 41.0353 -78.6489 277° West 306 352 43,000  Level Cleveland Center
10:25PM 41.0403 -78.7533 274° West 305 351 43,000  Level Cleveland Center
10:27PM 41.0514 -78.8658 277° West 321 369 43,000  Level Cleveland Center
10:28PM 41.0619 -78.9792 277° West 322 371 43,000  Level Cleveland Center
10:29PM 41.0758 -79.1114 278° West 307 353 43,000  Level Cleveland Center
10:30PM 41.0853 -79.2192 277° West 300 345 43,000  Level Cleveland Center
10:31PM 41.0958 -79.3278 277° West 298 343 43,000  Level Cleveland Center
10:32PM 41.1061 -79.4394 277° West 305 351 43,000  Level Cleveland Center
10:33PM 41.1150 -79.5467 276° West 297 342 43,000  Level Cleveland Center
10:34PM 41.1275 -79.6722 278° West 304 350 43,000  Level Cleveland Center
10:35PM 41.1378 -79.7819 277° West 302 348 43,000  Level Cleveland Center
10:36PM 41.1467 -79.8928 276° West 303 349 43,000  Level Cleveland Center
10:37PM 41.1578 -80.0136 277° West 310 357 43,000  Level Cleveland Center
10:38PM 41.1669 -80.1236 276° West 305 351 43,000  Level Cleveland Center
10:39PM 41.1767 -80.2364 277° West 309 356 43,000  Level Cleveland Center
10:40PM 41.1878 -80.3483 278° West 310 357 43,000  Level Cleveland Center
10:41PM 41.1967 -80.4625 276° West 309 356 43,000  Level Cleveland Center
10:42PM 41.2067 -80.5781 277° West 311 358 43,000  Level Cleveland Center
10:43PM 41.2158 -80.6947 276° West 314 361 43,000  Level Cleveland Center
10:44PM 41.2250 -80.8086 276° West 308 354 43,000  Level Cleveland Center
10:45PM 41.2342 -80.9247 276° West 316 364 43,000  Level Cleveland Center
10:46PM 41.2453 -81.0600 276° West 315 362 43,000  Level Cleveland Center
10:47PM 41.2553 -81.1761 277° West 317 365 43,000  Level Cleveland Center
10:48PM 41.2647 -81.2933 276° West 318 366 43,000  Level Cleveland Center
10:49PM 41.2736 -81.4117 276° West 320 368 43,000  Level Cleveland Center
10:50PM 41.2808 -81.5183 275° West 319 367 43,000  Level Cleveland Center
10:51PM 41.2881 -81.6339 275° West 315 362 43,000  Level Cleveland Center
10:52PM 41.2972 -81.7492 276° West 315 362 43,000  Level Cleveland Center
10:53PM 41.3033 -81.8653 274° West 315 362 43,000  Level Cleveland Center
10:54PM 41.3158 -82.0042 277° West 317 365 43,000  Level Cleveland Center
10:55PM 41.3242 -82.1239 275° West 317 365 43,000  Level Cleveland Center
10:56PM 41.3322 -82.2425 275° West 318 366 43,000  Level Cleveland Center
10:57PM 41.3403 -82.3586 275° West 315 362 43,000  Level Cleveland Center
10:58PM 41.3486 -82.4733 276° West 311 358 43,000  Level Cleveland Center
10:59PM 41.3558 -82.5908 275° West 314 361 43,000  Level Cleveland Center
11:00PM 41.3633 -82.7083 275° West 316 364 43,000  Level Cleveland Center
11:01PM 41.3703 -82.8258 275° West 315 362 43,000  Level Cleveland Center
11:02PM 41.3783 -82.9453 275° West 320 368 43,000  Level Cleveland Center
11:04PM 41.3878 -83.1050 275° West 320 368 43,000  Level Cleveland Center
11:05PM 41.3947 -83.2233 275° West 321 369 43,000  Level Cleveland Center
11:06PM 41.4022 -83.3422 275° West 322 371 43,000  Level Cleveland Center
11:07PM 41.4100 -83.4867 274° West 326 375 43,000  Level Cleveland Center
11:08PM 41.4175 -83.6078 275° West 327 376 43,000  Level Cleveland Center
11:09PM 41.4244 -83.7283 274° West 327 376 43,000  Level Cleveland Center
11:10PM 41.4300 -83.8500 274° West 328 377 43,000  Level Cleveland Center
11:11PM 41.4364 -83.9722 274° West 330 380 43,000  Level Cleveland Center
11:12PM 41.4425 -84.0950 274° West 331 381 43,000  Level Cleveland Center
11:13PM 41.4469 -84.1703 275° West 331 381 43,000  Level Chicago Center
11:14PM 41.4536 -84.3186 273° West 334 384 43,000  Level Chicago Center
11:15PM 41.4603 -84.4439 274° West 338 389 43,000 -240 Level Chicago Center
11:16PM 41.4650 -84.5669 273° West 336 387 42,600 -1,200 Descending Chicago Center
11:17PM 41.4719 -84.6856 275° West 324 373 40,600 -1,980 Descending Chicago Center
11:18PM 41.4767 -84.7950 273° West 301 346 38,600 -1,860 Descending Chicago Center
11:19PM 41.4814 -84.8992 273° West 286 329 36,900 -1,740 Descending Chicago Center
11:20PM 41.4853 -84.9994 273° West 275 316 35,100 -1,860 Descending Chicago Center
11:21PM 41.4903 -85.1047 274° West 282 325 33,200 -1,860 Descending Chicago Center
11:22PM 41.4942 -85.2122 273° West 289 333 31,400 -1,920 Descending Chicago Center
11:23PM 41.4992 -85.3236 273° West 296 341 29,400 -1,980 Descending Chicago Center
11:24PM 41.5039 -85.4375 273° West 301 346 27,400 -1,920 Descending Chicago Center
11:25PM 41.5078 -85.5503 273° West 300 345 25,500 -1,920 Descending Chicago Center
11:26PM 41.5114 -85.6575 273° West 289 333 23,600 -1,620 Descending Chicago Center
11:27PM 41.5153 -85.7650 273° West 290 334 22,300 -1,320 Descending Chicago Center
11:28PM 41.5200 -85.8767 273° West 300 345 21,000 -1,320 Descending Chicago Center
11:29PM 41.5233 -85.9842 272° West 294 338 19,700 -1,380 Descending Chicago Center
11:30PM 41.5256 -86.0917 272° West 292 336 18,300 -1,320 Descending Chicago Center
11:31PM 41.5239 -86.1964 269° West 286 329 17,100 -1,200 Descending Chicago Center
11:32PM 41.5233 -86.3011 270° West 283 326 15,900 -1,380 Descending Chicago Center
11:33PM 41.5228 -86.4225 270° West 277 319 14,400 -1,380 Descending Chicago Center
11:34PM 41.5211 -86.5286 269° West 282 325 13,100 -1,260 Descending Chicago Center
11:35PM 41.5219 -86.6367 271° West 288 331 11,900 -1,200 Descending Chicago Center
11:36PM 41.5208 -86.7356 269° West 267 307 10,700 -1,080 Descending Chicago Center
11:37PM 41.5194 -86.8175 269° West 228 262 9,800 -960 Descending Chicago Center
11:38PM 41.5194 -86.9006 270° West 226 260 8,800 -1,020 Descending Chicago Center
11:39PM 41.5183 -86.9828 269° West 222 255 7,800 -960 Descending Chicago Center
11:40PM 41.5350 -87.0633 285° West 225 259 6,900 -840 Descending Chicago Center
11:41PM 41.5583 -87.1453 291° West 233 268 6,100 -720 Descending Chicago Center
11:42PM 41.5781 -87.2253 288° West 232 267 5,500 -840 Descending Chicago Center
11:43PM 41.5972 -87.3050 288° West 229 264 4,500 -780 Descending Chicago Center
11:44PM 41.6181 -87.3856 289° West 229 264 4,000 -300 Descending Chicago Center
11:45PM 41.6428 -87.4772 290° West 225 259 4,000  Level Chicago Center
11:46PM 41.6603 -87.5403 290° West 203 234 4,000  Level Chicago Center
11:47PM 41.6781 -87.5961 293° West 176 203 4,000 -480 Level Chicago Center
11:48PM 41.7058 -87.6442 308° West 170 196 3,100 -900 Descending Chicago Center
11:49PM 41.7347 -87.6814 316° Northwest 158 182 2,200 -780 Descending Chicago Center
11:50PM 41.7544 -87.7103 312° West 131 151 1,600 -600 Descending Chicago Center
11:51PM 41.7764 -87.7403 314° West 116 133 1,000 -600 Descending Chicago Center